2023/09/05 00:00:00, 0.1,23.4
2023/09/05 00:10:00, 0.1,23.4
2023/09/05 00:20:00, 0.1,23.3
2023/09/05 00:30:00, 0.1,23.2
2023/09/05 00:40:00, 0.1,23.3
2023/09/05 00:50:00, 0.1,23.2
2023/09/05 01:00:00, 0.1,23.3
2023/09/05 01:10:00, 0.1,23.2
2023/09/05 01:20:00, 4.8,23.0
2023/09/05 01:30:00, 7.9,23.2
2023/09/05 01:40:00, 9.1,23.3
2023/09/05 01:50:00, 9.9,23.2
2023/09/05 02:00:00, 9.0,23.2
2023/09/05 02:10:00, 8.1,23.0
2023/09/05 02:20:00, 7.3,22.9
2023/09/05 02:30:00, 6.6,23.0
2023/09/05 02:40:00, 6.0,22.8
2023/09/05 02:50:00, 5.5,22.5
2023/09/05 03:00:00, 5.8,22.6
2023/09/05 03:10:00, 6.2,22.7
2023/09/05 03:20:00, 6.2,22.6
2023/09/05 03:30:00, 4.9,22.6
2023/09/05 03:40:00, 3.1,22.7
2023/09/05 03:50:00, 2.4,22.6
2023/09/05 04:00:00, 5.2,22.8
2023/09/05 04:10:00, 5.0,22.9
2023/09/05 04:20:00, 6.3,22.8
2023/09/05 04:30:00, 7.3,22.7
2023/09/05 04:40:00, 7.8,22.8
2023/09/05 04:50:00, 7.9,22.8
2023/09/05 05:00:00, 8.1,22.6
2023/09/05 05:10:00, 8.1,22.8
2023/09/05 05:20:00, 7.9,22.5
2023/09/05 05:30:00, 7.7,22.5
2023/09/05 05:40:00, 7.2,22.5
2023/09/05 05:50:00, 7.0,22.6
2023/09/05 06:00:00, 6.9,22.6
2023/09/05 06:10:00, 6.7,22.7
2023/09/05 06:20:00, 6.9,22.9
2023/09/05 06:30:00, 6.9,23.1
2023/09/05 06:40:00, 6.7,23.3
2023/09/05 06:50:00, 6.9,24.0
2023/09/05 07:00:00, 7.0,24.0
2023/09/05 07:10:00, 6.9,23.9
2023/09/05 07:20:00, 6.7,24.3
2023/09/05 07:30:00, 6.5,25.0
2023/09/05 07:40:00, 7.3,24.9
2023/09/05 07:50:00, 7.5,24.9
2023/09/05 08:00:00, 7.5,25.1
2023/09/05 08:10:00, 7.5,25.6
2023/09/05 08:20:00, 6.9,26.1
2023/09/05 08:30:00, 6.3,26.8
2023/09/05 08:40:00, 6.6,27.1
2023/09/05 08:50:00, 6.5,27.1
2023/09/05 09:00:00, 6.8,27.6
2023/09/05 09:10:00, 6.9,27.2
2023/09/05 09:20:00, 6.6,27.1
2023/09/05 09:30:00, 6.2,27.2
2023/09/05 09:40:00, 6.0,27.9
2023/09/05 09:50:00, 5.8,27.6
2023/09/05 10:00:00, 5.7,28.3
2023/09/05 10:10:00, 5.4,28.6
2023/09/05 10:20:00, 5.9,27.9
2023/09/05 10:30:00, 2.7,27.1
2023/09/05 10:40:00, 1.1,26.4
2023/09/05 10:50:00, 0.3,26.5
2023/09/05 11:00:00, 1.0,26.5
2023/09/05 11:10:00, 4.7,26.8
2023/09/05 11:20:00, 5.7,27.9
2023/09/05 11:30:00, 6.6,28.0
2023/09/05 11:40:00, 8.3,28.1
2023/09/05 11:50:00, 7.7,28.6
2023/09/05 12:00:00, 6.8,28.8
2023/09/05 12:10:00, 5.4,29.4
2023/09/05 12:20:00, 1.0,30.4
2023/09/05 12:30:00, 0.2,30.7
2023/09/05 12:40:00, 0.3,31.2
2023/09/05 12:50:00, 0.3,32.0
2023/09/05 13:00:00, 0.3,31.0
2023/09/05 13:10:00, 0.4,30.6
2023/09/05 13:20:00, 2.2,29.6
2023/09/05 13:30:00, 2.6,29.2
2023/09/05 13:40:00, 2.0,28.2
2023/09/05 13:50:00, 1.1,28.2
2023/09/05 14:00:00, 0.1,28.4
2023/09/05 14:10:00, 0.1,29.0
2023/09/05 14:20:00, 0.0,27.6
2023/09/05 14:30:00, 0.1,27.3
2023/09/05 14:40:00, 0.1,27.3
2023/09/05 14:50:00, 0.1,27.7
2023/09/05 15:00:00, 0.1,27.9
2023/09/05 15:10:00, 0.1,27.8
2023/09/05 15:20:00, 0.1,27.8
2023/09/05 15:30:00, 0.1,27.6
2023/09/05 15:40:00, 0.1,27.4
2023/09/05 15:50:00, 0.1,26.8
2023/09/05 16:00:00, 0.1,27.2
2023/09/05 16:10:00, 0.1,27.2
2023/09/05 16:20:00, 0.1,27.1
2023/09/05 16:30:00, 0.1,26.9
2023/09/05 16:40:00, 0.0,26.8
2023/09/05 16:50:00, 0.1,26.9
2023/09/05 17:00:00, 0.2,26.7
2023/09/05 17:10:00, 0.2,26.4
2023/09/05 17:20:00, 0.2,26.1
2023/09/05 17:30:00, 0.2,26.0
2023/09/05 17:40:00, 0.2,25.8
2023/09/05 17:50:00, 0.2,25.9
2023/09/05 18:00:00, 0.2,25.9
2023/09/05 18:10:00, 0.2,25.5
2023/09/05 18:20:00, 0.2,25.3
2023/09/05 18:30:00, 0.2,25.1
2023/09/05 18:40:00, 0.2,25.0
2023/09/05 18:50:00, 0.1,24.9
2023/09/05 19:00:00, 0.2,24.9
2023/09/05 19:10:00, 0.2,25.0
2023/09/05 19:20:00, 0.2,24.6
2023/09/05 19:30:00, 0.2,25.0
2023/09/05 19:40:00, 0.2,24.6
2023/09/05 19:50:00, 0.2,24.7
2023/09/05 20:00:00, 0.2,24.7
2023/09/05 20:10:00, 0.1,24.8
2023/09/05 20:20:00, 0.1,24.6
2023/09/05 20:30:00, 0.1,24.5
2023/09/05 20:40:00, 0.1,24.4
2023/09/05 20:50:00, 0.0,24.3
2023/09/05 21:00:00, 0.1,24.2
2023/09/05 21:10:00, 0.1,24.3
2023/09/05 21:20:00, 0.1,24.1
2023/09/05 21:30:00, 0.1,24.0
2023/09/05 21:40:00, 0.2,24.0
2023/09/05 21:50:00, 0.2,24.0
2023/09/05 22:00:00, 0.2,24.1
2023/09/05 22:10:00, 0.2,24.0
2023/09/05 22:20:00, 0.2,24.0
2023/09/05 22:30:00, 0.2,24.0
2023/09/05 22:40:00, 0.2,24.0
2023/09/05 22:50:00, 0.2,23.8
2023/09/05 23:00:00, 0.1,23.8
2023/09/05 23:10:00, 0.1,23.9
2023/09/05 23:20:00, 0.1,24.0
2023/09/05 23:30:00, 0.1,24.0
2023/09/05 23:40:00, 0.1,24.0
2023/09/05 23:50:00, 0.1,23.9
